THOR ABLESTAR DEB

Satellite information

Favourite Embed

Satellite Type and Status

DEBRISIN ORBIT

Key statistics

Satellite THOR ABLESTAR DEB at a glance.

Uptime

23442

Days in orbit

Revolutions

≈ 14.1

Per day

Orbit

LEO

Low Earth Orbit

Inclination

67.0

Latest

Satellite identification and parameters

Extended collection of information and parameters for THOR ABLESTAR DEB.

Object identification

Identified? True

Debris? True

Object name: THOR ABLESTAR DEB

International designator: 1961-015DG

Object number (NORAD): 330

Object ID (CCSDS): 330

Country: UNITED STATES OF AMERICA (US)

Current information (Y/N): Y

RCS size: SMALL

Orbital parameters

Period: 102.407 minutes

Inclination: 66.9797 deg

SMA: 7250.712 km

Apoapsis: 910.206 km

Periapsis: 834.949 km

RAAN: 298.6434 deg

Eccentricy: 0.0051896

Argument of periapsis: 325.756 deg

Mean anomaly: 34.0185 deg

Mean motion: 14.06150345 rev/day

Mean motion (dot): 0.00001195 rev/day2

B* drag term: 0.00076442729 1/REarth

Two-line elements (TLE)

Creation date: Sept. 3, 2025, 2:21 a.m.

Reference frame: TEME

Reference center: EARTH

Epoch: Sept. 2, 2025, 9:12 p.m. UTC

TLE line 0: 0 THOR ABLESTAR DEB

TLE line 1: 1 00330U 61015DG 25245.88396716 .00001195 00000-0 76443-3 0 9998

TLE line 2: 2 00330 66.9797 298.6434 0051896 325.7560 34.0185 14.06150345256301

Live tracking on map

Real-time ground track for satellite THOR ABLESTAR DEB.

In-orbit conjunctions

A list of the most updated potential collisions computed for object THOR ABLESTAR DEB.

Target Orbit TCA Probability of collision Miss distance Type
CZ-6A DEB SSO 2025-04-17 15:20:40 0.0001123186 301.0 (m) DEBRIS
CZ-6A DEB SSO 2024-11-12 02:25:48 0.0001414359 475.0 (m) DEBRIS
NOAA 16 DEB SSO 2024-09-06 07:58:43 0.0001287397 127.0 (m) DEBRIS

Associated space launch

THOR ABLESTAR DEB was lifted into orbit during the mission ‘Thor DM-21 Ablestar | Transit 4A & Injun-1 & Solrad 3’, on board a Thor DM-21 Ablestar space rocket.

The launch took place on June 29, 1961, 4:23 a.m. from Space Launch Complex 17B.

For more information about the launch, click the button.

Launch to space Thor DM-21 Ablestar | Transit 4A & Injun-1 & Solrad 3
Thor DM-21 Ablestar | Transit 4A & Injun-1 & Solrad 3

Agency: N/A

Status: Launch Successful

Launch date: June 29, 1961, 4:23 a.m. UTC

Rocket: Thor DM-21 Ablestar

Launch pad: Space Launch Complex 17B

Location: Cape Canaveral SFS, FL, USA

...

Latest news about this satellite

There are no fresh news available about this satellite. Check back as we update our databases every day.


Newsletter sign-up

Weekly statistics, charts and insights to help you stay on top of the space industry.